Regional Weather Roundup
Issued by NWS

Home | Current Version | Previous Version | Text Only | Print | Product List | Glossary On
Versions: 1 2 3 4 5 6 7 8 9 10 11 12 13 14 15 16 17 18 19 20 21 22 23 24 25 26 27 28 29 30 31 32 33 34 35 36 37 38 39 40 41 42 43 44 45 46 47 48 49 50
000
ASUS43 KDTX 271410
RWRMI
MICHIGAN HOURLY REGIONAL WEATHER ROUNDUP
NATIONAL WEATHER SERVICE DETROIT/PONTIAC MI
900 AM EST TUE JAN 27 2015

NOTE: "FAIR" INDICATES FEW OR NO CLOUDS BELOW 12,000 FEET WITH NO
SIGNIFICANT WEATHER AND/OR OBSTRUCTION TO VISIBILITY.

MIZ047>049-052>055-059>063-066>070-074>076-081>083-271500-
SOUTHEAST LOWER MICHIGAN

CITY           SKY/WX    TMP DP  RH WIND       PRES   REMARKS
ADRIAN         PTCLDY    16  10  77 N8        30.09R
ALMA           PTCLDY    11   8  90 CALM      30.13R
ANN ARBOR      CLEAR     15  10  80 NE7       30.07R
BAD AXE        LGT SNOW  19  15  85 N8        30.10R
DETROIT CITY   MOSUNNY   17   9  70 N7        30.09R
DETROIT        MOSUNNY   15  10  80 N5        30.10R
FLINT          PTCLDY    15   9  76 N6        30.10R
GROSSE ILE     PTSUNNY   12   9  85 NW7       30.08R
HILLSDALE      CLOUDY    16  12  85 CALM      30.06R
HOWELL         PTCLDY    12  10  89 CALM      30.08R

CITY           SKY/WX    TMP DP  RH WIND       PRES   REMARKS
JACKSON        PTCLDY    16  10  77 N5        30.09R
LAMBERTVILLE   MOSUNNY   16  10  79 CALM      30.09S
LANSING        PTCLDY    15   9  76 N3        30.11R
LAPEER         NOT AVBL
MASON          PTCLDY    13  10  84 N3        30.10R
MONROE         SUNNY     12  10  92 N6        30.07R
MT. CLEMENS    MOSUNNY   13   8  79 N7        30.06R
PONTIAC        PTCLDY    12   7  80 N3        30.06R
PORT HOPE        N/A     20  13  74 NE16      30.10R
PORT HURON     SUNNY     10   9  92 NW5       30.08R
TRI CITIES     PTCLDY    16  10  77 NW6       30.14R
YPSILANTI      CLEAR     17   9  70 NE5       30.09R
$$
MIZ043>046-050>051-056>058-064>065-071>073-077>080-271500-
SOUTHWEST LOWER MICHIGAN

CITY           SKY/WX    TMP DP  RH WIND       PRES   REMARKS
BATTLE CREEK   CLOUDY    19  11  70 NE7       30.10R
BENTON HARBOR  MOCLDY    19  12  74 E6        30.10R
BIG RAPIDS     CLEAR     13  11  89 CALM      30.12R
COLDWATER      MOCLDY    18  12  79 NE8       30.09R
HOLLAND        CLEAR     20  11  68 NE9       30.13R
GRAND RAPIDS   MOCLDY    17  11  77 NE7       30.12R
KALAMAZOO      CLOUDY    19  12  74 NE6       30.10R
MARSHALL       MOCLDY    17  11  79 NE5       30.09R
MUSKEGON       PTCLDY    18  10  71 NE7       30.14R
$$
MIZ016>042-271500-
NORTHERN LOWER MICHIGAN

CITY           SKY/WX    TMP DP  RH WIND       PRES   REMARKS
ALPENA         CLEAR      8   3  80 N8        30.18R
BEAVER ISLAND  CLEAR     10   6  83 CALM      30.20R
BELLAIRE       CLEAR      7   4  87 CALM      30.19R
CADILLAC       CLEAR     10   7  88 NE5       30.10R
CHARLEVOIX     CLEAR     15  11  82 E6        30.22R
FRANKFORT      SUNNY     11   9  89 NE3       30.18R
GAYLORD        FOG       12  11  95 NE6       30.11S VSB 1
GRAYLING       CLEAR      8   5  89 CALM      30.13R
HARBOR SPRINGS CLEAR     13   8  78 NE5       30.19R
HOUGHTON LAKE  CLEAR     12   9  87 NE3       30.11S
MANISTEE       CLEAR     12   9  85 E5        30.17R
OSCODA         FLURRIES  18  12  76 N13       30.14R
PELLSTON       CLEAR      6   4  91 NW3       30.20R
TRAVERSE CITY  PTCLDY    10   7  87 CALM      30.17R
$$
MIZ007>008-015-271500-
EASTERN UPPER MICHIGAN

CITY           SKY/WX    TMP DP  RH WIND       PRES   REMARKS
KINROSS        PTCLDY     7   0  72 NE7       30.20R
MACKINAC ISLAN PTCLDY    11   6  78 NE7       30.20R
NEWBERRY       PTCLDY     3  -1  81 E3        30.19R
S. S. MARIE    PTCLDY     5  -3  69 NE5       30.22R
$$
MIZ004>006-011>014-085-271500-
CENTRAL UPPER MICHIGAN

CITY           SKY/WX    TMP DP  RH WIND       PRES   REMARKS
MANISTIQUE     PTCLDY     4   1  83 CALM      30.20R
ESCANABA       CLOUDY    16  12  86 N6        30.17S
MENOMINEE      CLOUDY    19  16  86 CALM      30.16R
SAWYER-GWINN   FOG       16  14  93 CALM      30.14R VSB 3/4
$$
MIZ001>003-009>011-084-271500-
WESTERN UPPER MICHIGAN

CITY           SKY/WX    TMP DP  RH WIND       PRES   REMARKS
IRON MOUNTAIN  CLOUDY    16  13  88 CALM      30.12R
HOUGHTON       CLEAR     12   9  87 CALM      30.12R
COPPER HARBOR    N/A     17  14  88 SW3       30.14S
IRONWOOD       CLOUDY    21  19  93 CALM      30.08R
$$

ABBREVIATIONS USED IN REMARKS
   TC - TEMPERATURE IN CELSIUS
  WCI - WIND CHILL INDEX
   HX - HEAT INDEX
  VSB - VISIBILITY



USA.gov is the U.S. government's official web portal to all federal, state and local government web resources and services.